FW5236 Weather Reports


time (UTC)temp
F
wind
direction
speed
knots
gust
knots
rain 1hr
in
rain 24hr
in
rain mn
in
humidity
%
barometer
mb
20260505124531 49 245 0.0 1.7 0.00 0.00 0.00 90 1014.3
20260505123032 49 225 0.0 0.9 0.00 0.00 0.00 89 1014.2
20260505121529 50 232 0.0 3.5 0.00 0.00 0.00 88 1014.1
20260505120030 51 226 0.0 2.6 0.00 0.00 0.00 87 1014.0
20260505114528 51 238 0.0 3.5 0.00 0.00 0.00 87 1014.0
20260505113034 51 244 0.0 2.6 0.00 0.00 0.00 86 1013.9
20260505111531 52 268 0.0 2.6 0.00 0.00 0.00 86 1013.8
20260505101531 54 246 0.0 2.6 0.00 0.00 0.00 83 1013.4
20260505100030 54 272 0.0 2.6 0.00 0.00 0.00 83 1013.2
20260505094533 55 313 0.0 1.7 0.00 0.00 0.00 83 1013.2
20260505093104 55 265 0.0 2.6 0.00 0.00 0.00 80 1013.1
20260505091531 57 263 0.9 3.5 0.00 0.00 0.00 79 1013.1
20260505090030 58 30 0.0 0.9 0.00 0.00 0.00 80 1012.9
20260505084644 57 25 0.0 3.5 0.00 0.00 0.00 81 1012.9
20260505083028 58 344 0.0 2.6 0.00 0.00 0.00 79 1013.0
20260505081526 58 9 0.0 2.6 0.00 0.00 0.00 77 1012.9
20260505080033 59 10 0.0 1.7 0.00 0.00 0.00 75 1012.9
20260505074530 59 23 0.0 1.7 0.00 0.00 0.00 74 1012.9
20260505073031 59 32 0.0 1.7 0.00 0.00 0.00 72 1012.7
20260505071533 60 292 0.0 2.6 0.00 0.00 0.00 70 1012.7
20260505070031 60 21 0.0 2.6 0.00 0.00 0.00 69 1012.4
20260505061533 62 347 0.0 3.5 0.00 0.00 0.00 63 1012.4
20260505054532 63 13 0.0 3.5 0.00 0.00 0.00 60 1012.2
20260505053106 63 324 0.9 3.5 0.00 0.00 0.00 59 1012.1
20260505051532 63 308 0.0 2.6 0.00 0.00 0.00 59 1012.0
20260505041603 67 346 0.0 3.5 0.00 0.00 0.00 54 1011.5
20260505040043 68 6 0.0 3.5 0.00 0.00 0.00 53 1011.2
20260505034605 67 18 0.9 5.2 0.00 0.00 0.00 55 1010.9
20260505033107 67 17 0.0 3.5 0.00 0.00 0.00 56 1010.9
20260505031604 69 2 0.0 2.6 0.00 0.00 0.00 55 1010.6
20260505030032 70 24 0.0 3.5 0.00 0.00 0.00 53 1010.4
20260505024605 72 32 0.0 2.6 0.00 0.00 0.00 50 1010.3
20260505023030 74 20 0.0 4.3 0.00 0.00 0.00 49 1010.1
20260505021530 75 29 0.9 4.3 0.00 0.00 0.00 47 1010.1
20260505020107 76 52 1.7 4.3 0.00 0.00 0.00 45 1010.0
20260505014532 77 43 0.9 3.5 0.00 0.00 0.00 44 1010.0
20260505013030 78 42 0.9 4.3 0.00 0.00 0.00 42 1010.0
20260505011530 79 46 1.7 6.1 0.00 0.00 0.00 42 1010.0
20260505010032 79 47 1.7 5.2 0.00 0.00 0.00 40 1009.9
20260505003103 81 47 1.7 4.3 0.00 0.00 0.00 39 1010.1
20260505001606 81 53 1.7 5.2 0.00 0.00 0.00 39 1010.1
20260505000034 81 42 1.7 4.3 0.00 0.00 0.00 38 1010.2
20260504234531 82 42 1.7 4.3 0.00 0.00 0.00 38 1010.2
20260504233031 83 50 1.7 5.2 0.00 0.00 0.00 37 1010.2
20260504231530 83 55 0.9 3.5 0.00 0.00 0.00 37 1010.4
20260504230107 83 56 1.7 4.3 0.00 0.00 0.00 36 1010.6
20260504224531 83 49 1.7 4.3 0.00 0.00 0.00 36 1010.7
20260504223106 83 46 1.7 4.3 0.00 0.00 0.00 36 1010.8
20260504221530 83 37 1.7 5.2 0.00 0.00 0.00 35 1010.9
20260504220029 83 46 0.9 5.2 0.00 0.00 0.00 34 1011.0
20260504214531 84 44 0.9 4.3 0.00 0.00 0.00 31 1011.2
20260504213030 84 27 0.9 5.2 0.00 0.00 0.00 30 1011.3
20260504211527 84 26 0.9 3.5 0.00 0.00 0.00 30 1011.3
20260504210032 83 42 0.9 3.5 0.00 0.00 0.00 31 1011.5
20260504203031 82 45 0.9 3.5 0.00 0.00 0.00 35 1011.9
20260504201525 81 40 0.9 4.3 0.00 0.00 0.00 35 1011.9
20260504200032 81 44 0.9 4.3 0.00 0.00 0.00 36 1012.0
20260504194527 80 51 0.9 3.5 0.00 0.00 0.00 37 1012.1
20260504193031 80 51 0.9 3.5 0.00 0.00 0.00 38 1012.0
20260504191527 79 40 1.7 4.3 0.00 0.00 0.00 40 1012.2
20260504190031 78 32 0.9 6.1 0.00 0.00 0.00 39 1012.3
20260504184531 77 43 0.9 4.3 0.00 0.00 0.00 40 1012.4
20260504183031 77 45 1.7 4.3 0.00 0.00 0.00 41 1012.4
20260504181529 77 46 0.9 4.3 0.00 0.00 0.00 42 1012.4
20260504180031 77 28 0.9 4.3 0.00 0.00 0.00 42 1012.4
20260504174531 78 46 0.0 2.6 0.00 0.00 0.00 42 1012.5
20260504173103 77 41 0.0 1.7 0.00 0.00 0.00 42 1012.5